Year,Month,Day,Hour,Minute,Value (Times are PST for windspeed in km/hr)
2014,02,20,00,00,1.20
2014,02,20,00,01,6.10
2014,02,20,00,02,6.60
2014,02,20,00,03,7.80
2014,02,20,00,04,3.00
2014,02,20,00,05,3.70
2014,02,20,00,06,2.50
2014,02,20,00,07,7.60
2014,02,20,00,08,1.50
2014,02,20,00,09,5.60
2014,02,20,00,10,6.00
2014,02,20,00,11,1.40
2014,02,20,00,12,9.30
2014,02,20,00,13,10.70
2014,02,20,00,14,6.50
2014,02,20,00,15,5.80
2014,02,20,00,16,4.30
2014,02,20,00,17,11.10
2014,02,20,00,18,10.20
2014,02,20,00,19,6.50
2014,02,20,00,20,5.10
2014,02,20,00,21,6.60
2014,02,20,00,22,4.80
2014,02,20,00,23,0.00
2014,02,20,00,24,2.80
2014,02,20,00,25,0.70
2014,02,20,00,26,2.10
2014,02,20,00,27,1.80
2014,02,20,00,28,0.50
2014,02,20,00,29,6.60
2014,02,20,00,30,11.50
2014,02,20,00,31,9.10
2014,02,20,00,32,0.80
2014,02,20,00,33,3.00
2014,02,20,00,34,5.10
2014,02,20,00,35,4.40
2014,02,20,00,36,1.70
2014,02,20,00,37,1.00
2014,02,20,00,38,0.40
2014,02,20,00,39,1.00
2014,02,20,00,40,1.00
2014,02,20,00,41,0.00
2014,02,20,00,42,0.30
2014,02,20,00,43,0.00
2014,02,20,00,44,0.00
2014,02,20,00,45,0.60
2014,02,20,00,46,3.10
2014,02,20,00,47,0.00
2014,02,20,00,48,0.00
2014,02,20,00,49,1.00
2014,02,20,00,50,0.20
2014,02,20,00,51,0.00
2014,02,20,00,52,0.00
2014,02,20,00,53,0.00
2014,02,20,00,54,0.00
2014,02,20,00,55,0.00
2014,02,20,00,56,0.00
2014,02,20,00,57,0.00
2014,02,20,00,58,0.00
2014,02,20,00,59,0.00
2014,02,20,01,00,0.00
2014,02,20,01,01,0.00
2014,02,20,01,02,1.90
2014,02,20,01,03,0.00
2014,02,20,01,04,0.10
2014,02,20,01,05,0.80
2014,02,20,01,06,0.60
2014,02,20,01,07,0.00
2014,02,20,01,08,0.00
2014,02,20,01,09,0.00
2014,02,20,01,10,0.10
2014,02,20,01,11,0.00
2014,02,20,01,12,0.00
2014,02,20,01,13,0.00
2014,02,20,01,14,0.00
2014,02,20,01,15,0.00
2014,02,20,01,16,0.00
2014,02,20,01,17,0.70
2014,02,20,01,18,2.10
2014,02,20,01,19,0.00
2014,02,20,01,20,0.00
2014,02,20,01,21,0.00
2014,02,20,01,22,0.30
2014,02,20,01,23,0.00
2014,02,20,01,24,0.70
2014,02,20,01,25,0.00
2014,02,20,01,26,0.20
2014,02,20,01,27,0.00
2014,02,20,01,28,0.00
2014,02,20,01,29,0.00
2014,02,20,01,30,0.00
2014,02,20,01,31,0.00
2014,02,20,01,32,0.00
2014,02,20,01,33,0.00
2014,02,20,01,34,0.00
2014,02,20,01,35,0.00
2014,02,20,01,36,0.00
2014,02,20,01,37,0.00
2014,02,20,01,38,0.00
2014,02,20,01,39,0.00
2014,02,20,01,40,0.00
2014,02,20,01,41,0.00
2014,02,20,01,42,0.00
2014,02,20,01,43,0.00
2014,02,20,01,44,0.80
2014,02,20,01,45,0.00
2014,02,20,01,46,2.70
2014,02,20,01,47,2.00
2014,02,20,01,48,0.00
2014,02,20,01,49,0.00
2014,02,20,01,50,0.00
2014,02,20,01,51,0.00
2014,02,20,01,52,0.00
2014,02,20,01,53,0.20
2014,02,20,01,54,1.40
2014,02,20,01,55,0.00
2014,02,20,01,56,0.00
2014,02,20,01,57,0.00
2014,02,20,01,58,1.90
2014,02,20,01,59,0.00
2014,02,20,02,00,0.00
2014,02,20,02,01,0.00
2014,02,20,02,02,0.00
2014,02,20,02,03,0.00
2014,02,20,02,04,0.00
2014,02,20,02,05,0.00
2014,02,20,02,06,0.00
2014,02,20,02,07,0.00
2014,02,20,02,08,0.00
2014,02,20,02,09,0.00
2014,02,20,02,10,0.00
2014,02,20,02,11,0.00
2014,02,20,02,12,0.00
2014,02,20,02,13,1.40
2014,02,20,02,14,0.00
2014,02,20,02,15,0.00
2014,02,20,02,16,0.70
2014,02,20,02,17,5.20
2014,02,20,02,18,2.50
2014,02,20,02,19,0.00
2014,02,20,02,20,0.00
2014,02,20,02,21,0.00
2014,02,20,02,22,0.00
2014,02,20,02,23,0.00
2014,02,20,02,24,0.00
2014,02,20,02,25,1.50
2014,02,20,02,26,4.30
2014,02,20,02,27,2.10
2014,02,20,02,28,0.00
2014,02,20,02,29,0.00
2014,02,20,02,30,0.00
2014,02,20,02,31,0.00
2014,02,20,02,32,0.00
2014,02,20,02,33,0.00
2014,02,20,02,34,0.00
2014,02,20,02,35,0.10
2014,02,20,02,36,0.00
2014,02,20,02,37,0.00
2014,02,20,02,38,4.00
2014,02,20,02,39,2.50
2014,02,20,02,40,0.00
2014,02,20,02,41,0.00
2014,02,20,02,42,0.10
2014,02,20,02,43,0.00
2014,02,20,02,44,0.00
2014,02,20,02,45,0.00
2014,02,20,02,46,0.00
2014,02,20,02,47,0.00
2014,02,20,02,48,0.00
2014,02,20,02,49,0.00
2014,02,20,02,50,0.00
2014,02,20,02,51,0.00
2014,02,20,02,52,0.00
2014,02,20,02,53,0.00
2014,02,20,02,54,0.00
2014,02,20,02,55,0.40
2014,02,20,02,56,0.10
2014,02,20,02,57,0.10
2014,02,20,02,58,0.00
2014,02,20,02,59,0.00
2014,02,20,03,00,0.00
2014,02,20,03,01,0.00
2014,02,20,03,02,0.00
2014,02,20,03,03,0.00
2014,02,20,03,04,0.00
2014,02,20,03,05,0.00
2014,02,20,03,06,0.00
2014,02,20,03,07,0.00
2014,02,20,03,08,0.10
2014,02,20,03,09,0.00
2014,02,20,03,10,0.00
2014,02,20,03,11,0.00
2014,02,20,03,12,0.00
2014,02,20,03,13,0.00
2014,02,20,03,14,0.00
2014,02,20,03,15,0.00
2014,02,20,03,16,0.00
2014,02,20,03,17,0.00
2014,02,20,03,18,0.00
2014,02,20,03,19,0.00
2014,02,20,03,20,0.00
2014,02,20,03,21,0.00
2014,02,20,03,22,0.00
2014,02,20,03,23,1.30
2014,02,20,03,24,0.20
2014,02,20,03,25,0.00
2014,02,20,03,26,0.10
2014,02,20,03,27,0.00
2014,02,20,03,28,0.00
2014,02,20,03,29,0.00
2014,02,20,03,30,0.00
2014,02,20,03,31,0.00
2014,02,20,03,32,0.00
2014,02,20,03,33,0.00
2014,02,20,03,34,0.10
2014,02,20,03,35,0.00
2014,02,20,03,36,0.00
2014,02,20,03,37,0.00
2014,02,20,03,38,0.00
2014,02,20,03,39,0.00
2014,02,20,03,40,0.00
2014,02,20,03,41,0.00
2014,02,20,03,42,0.00
2014,02,20,03,43,0.00
2014,02,20,03,44,0.00
2014,02,20,03,45,0.00
2014,02,20,03,46,0.00
2014,02,20,03,47,0.00
2014,02,20,03,48,0.00
2014,02,20,03,49,0.00
2014,02,20,03,50,0.00
2014,02,20,03,51,0.10
2014,02,20,03,52,0.00
2014,02,20,03,53,0.00
2014,02,20,03,54,0.00
2014,02,20,03,55,0.00
2014,02,20,03,56,0.00
2014,02,20,03,57,0.00
2014,02,20,03,58,0.00
2014,02,20,03,59,0.00
2014,02,20,04,00,0.00
2014,02,20,04,01,0.00
2014,02,20,04,02,0.00
2014,02,20,04,03,0.00
2014,02,20,04,04,0.00
2014,02,20,04,05,0.00
2014,02,20,04,06,0.00
2014,02,20,04,07,0.00
2014,02,20,04,08,0.00
2014,02,20,04,09,0.00
2014,02,20,04,10,0.00
2014,02,20,04,11,0.00
2014,02,20,04,12,0.00
2014,02,20,04,13,0.00
2014,02,20,04,14,0.00
2014,02,20,04,15,0.00
2014,02,20,04,16,0.00
2014,02,20,04,17,1.00
2014,02,20,04,18,3.00
2014,02,20,04,19,1.00
2014,02,20,04,20,0.00
2014,02,20,04,21,0.00
2014,02,20,04,22,0.10
2014,02,20,04,23,0.00
2014,02,20,04,24,0.00
2014,02,20,04,25,0.00
2014,02,20,04,26,0.00
2014,02,20,04,27,0.00
2014,02,20,04,28,0.00
2014,02,20,04,29,0.00
2014,02,20,04,30,0.00
2014,02,20,04,31,0.00
2014,02,20,04,32,0.00
2014,02,20,04,33,0.50
2014,02,20,04,34,0.00
2014,02,20,04,35,0.00
2014,02,20,04,36,0.00
2014,02,20,04,37,0.00
2014,02,20,04,38,0.00
2014,02,20,04,39,0.00
2014,02,20,04,40,0.00
2014,02,20,04,41,0.00
2014,02,20,04,42,0.00
2014,02,20,04,43,0.00
2014,02,20,04,44,0.00
2014,02,20,04,45,0.00
2014,02,20,04,46,0.00
2014,02,20,04,47,0.00
2014,02,20,04,48,0.00
2014,02,20,04,49,0.00
2014,02,20,04,50,0.00
2014,02,20,04,51,0.00
2014,02,20,04,52,1.50
2014,02,20,04,53,0.10
2014,02,20,04,54,0.00
2014,02,20,04,55,0.00
2014,02,20,04,56,0.00
2014,02,20,04,57,0.10
2014,02,20,04,58,0.00
2014,02,20,04,59,0.00
2014,02,20,05,00,0.00
2014,02,20,05,01,0.00
2014,02,20,05,02,1.20
2014,02,20,05,03,3.90
2014,02,20,05,04,3.80
2014,02,20,05,05,1.50
2014,02,20,05,06,0.00
2014,02,20,05,07,1.50
2014,02,20,05,08,0.60
2014,02,20,05,09,0.00
2014,02,20,05,10,0.20
2014,02,20,05,11,6.00
2014,02,20,05,12,8.30
2014,02,20,05,13,4.10
2014,02,20,05,14,0.00
2014,02,20,05,15,0.00
2014,02,20,05,16,0.40
2014,02,20,05,17,1.10
2014,02,20,05,18,1.70
2014,02,20,05,19,0.00
2014,02,20,05,20,0.00
2014,02,20,05,21,3.00
2014,02,20,05,22,4.10
2014,02,20,05,23,1.40
2014,02,20,05,24,0.10
2014,02,20,05,25,3.60
2014,02,20,05,26,1.40
2014,02,20,05,27,7.10
2014,02,20,05,28,7.00
2014,02,20,05,29,1.30
2014,02,20,05,30,0.10
2014,02,20,05,31,3.10
2014,02,20,05,32,0.00
2014,02,20,05,33,1.50
2014,02,20,05,34,0.50
2014,02,20,05,35,0.00
2014,02,20,05,36,0.00
2014,02,20,05,37,0.00
2014,02,20,05,38,0.50
2014,02,20,05,39,5.20
2014,02,20,05,40,2.10
2014,02,20,05,41,3.10
2014,02,20,05,42,1.20
2014,02,20,05,43,0.60
2014,02,20,05,44,0.00
2014,02,20,05,45,0.10
2014,02,20,05,46,0.00
2014,02,20,05,47,0.00
2014,02,20,05,48,0.00
2014,02,20,05,49,0.00
2014,02,20,05,50,1.30
2014,02,20,05,51,0.00
2014,02,20,05,52,0.70
2014,02,20,05,53,0.00
2014,02,20,05,54,0.10
2014,02,20,05,55,0.00
2014,02,20,05,56,0.00
2014,02,20,05,57,2.30
2014,02,20,05,58,1.80
2014,02,20,05,59,4.50
2014,02,20,06,00,0.50
2014,02,20,06,01,1.10
2014,02,20,06,02,4.40
2014,02,20,06,03,1.40
2014,02,20,06,04,4.70
2014,02,20,06,05,2.50
2014,02,20,06,06,6.30
2014,02,20,06,07,3.20
2014,02,20,06,08,3.90
2014,02,20,06,09,4.50
2014,02,20,06,10,5.10
2014,02,20,06,11,1.20
2014,02,20,06,12,0.00
2014,02,20,06,13,0.00
2014,02,20,06,14,1.00
2014,02,20,06,15,0.40
2014,02,20,06,16,11.40
2014,02,20,06,17,10.10
2014,02,20,06,18,8.70
2014,02,20,06,19,5.40
2014,02,20,06,20,17.50
2014,02,20,06,21,22.80
2014,02,20,06,22,14.80
2014,02,20,06,23,16.10
2014,02,20,06,24,18.60
2014,02,20,06,25,18.70
2014,02,20,06,26,11.90
2014,02,20,06,27,22.20
2014,02,20,06,28,21.30
2014,02,20,06,29,18.60
2014,02,20,06,30,17.50
2014,02,20,06,31,29.10
2014,02,20,06,32,28.70
2014,02,20,06,33,28.30
2014,02,20,06,34,33.80
2014,02,20,06,35,17.80
2014,02,20,06,36,29.50
2014,02,20,06,37,19.80
2014,02,20,06,38,25.80
2014,02,20,06,39,21.20
2014,02,20,06,40,20.20
2014,02,20,06,41,15.90
2014,02,20,06,42,18.00
2014,02,20,06,43,13.00
2014,02,20,06,44,9.40
2014,02,20,06,45,7.30
2014,02,20,06,46,8.70
2014,02,20,06,47,7.40
2014,02,20,06,48,12.30
2014,02,20,06,49,11.30
2014,02,20,06,50,12.10
2014,02,20,06,51,10.90
2014,02,20,06,52,15.70
2014,02,20,06,53,12.80
2014,02,20,06,54,11.00
2014,02,20,06,55,15.30
2014,02,20,06,56,10.30
2014,02,20,06,57,8.90
2014,02,20,06,58,14.50
2014,02,20,06,59,16.90
2014,02,20,07,00,11.80
2014,02,20,07,01,15.10
2014,02,20,07,02,8.40
2014,02,20,07,03,11.40
2014,02,20,07,04,10.60
2014,02,20,07,05,11.90
2014,02,20,07,06,15.00
2014,02,20,07,07,11.20
2014,02,20,07,08,7.20
2014,02,20,07,09,14.60
2014,02,20,07,10,11.10
2014,02,20,07,11,9.10
2014,02,20,07,12,5.20
2014,02,20,07,13,11.40
2014,02,20,07,14,10.00
2014,02,20,07,15,8.40
2014,02,20,07,16,13.30
2014,02,20,07,17,8.50
2014,02,20,07,18,6.70
2014,02,20,07,19,6.80
2014,02,20,07,20,6.30
2014,02,20,07,21,9.30
2014,02,20,07,22,6.90
2014,02,20,07,23,6.40
2014,02,20,07,24,4.70
2014,02,20,07,25,5.50
2014,02,20,07,26,4.30
2014,02,20,07,27,4.70
2014,02,20,07,28,4.50
2014,02,20,07,29,7.60
2014,02,20,07,30,4.50
2014,02,20,07,31,4.60
2014,02,20,07,32,6.90
2014,02,20,07,33,5.10
2014,02,20,07,34,3.60
2014,02,20,07,35,4.00
2014,02,20,07,36,3.70
2014,02,20,07,37,2.70
2014,02,20,07,38,3.70
2014,02,20,07,39,2.20
2014,02,20,07,40,3.50
2014,02,20,07,41,4.30
2014,02,20,07,42,9.50
2014,02,20,07,43,6.30
2014,02,20,07,44,5.20
2014,02,20,07,45,4.60
2014,02,20,07,46,3.50
2014,02,20,07,47,8.60
2014,02,20,07,48,7.20
2014,02,20,07,49,4.10
2014,02,20,07,50,1.70
2014,02,20,07,51,1.80
2014,02,20,07,52,0.60
2014,02,20,07,53,0.10
2014,02,20,07,54,0.00
2014,02,20,07,55,3.40
2014,02,20,07,56,5.10
2014,02,20,07,57,1.30
2014,02,20,07,58,3.10
2014,02,20,07,59,3.80
2014,02,20,08,00,3.90
2014,02,20,08,01,12.40
2014,02,20,08,02,10.20
2014,02,20,08,03,0.80
2014,02,20,08,04,4.70
2014,02,20,08,05,7.20
2014,02,20,08,06,1.40
2014,02,20,08,07,1.50
2014,02,20,08,08,3.30
2014,02,20,08,09,0.10
2014,02,20,08,10,1.40
2014,02,20,08,11,4.00
2014,02,20,08,12,5.60
2014,02,20,08,13,9.50
2014,02,20,08,14,7.60
2014,02,20,08,15,10.30
2014,02,20,08,16,9.00
2014,02,20,08,17,5.00
2014,02,20,08,18,4.40
2014,02,20,08,19,2.10
2014,02,20,08,20,5.20
2014,02,20,08,21,4.50
2014,02,20,08,22,2.40
2014,02,20,08,23,4.20
2014,02,20,08,24,8.60
2014,02,20,08,25,12.40
2014,02,20,08,26,9.50
2014,02,20,08,27,2.40
2014,02,20,08,28,2.20
2014,02,20,08,29,2.00
2014,02,20,08,30,10.40
2014,02,20,08,31,13.30
2014,02,20,08,32,7.60
2014,02,20,08,33,7.40
2014,02,20,08,34,6.20
2014,02,20,08,35,6.90
2014,02,20,08,36,3.80
2014,02,20,08,37,8.10
2014,02,20,08,38,3.50
2014,02,20,08,39,5.40
2014,02,20,08,40,9.70
2014,02,20,08,41,6.00
2014,02,20,08,42,7.20
2014,02,20,08,43,8.70
2014,02,20,08,44,7.20
2014,02,20,08,45,15.70
2014,02,20,08,46,7.50
2014,02,20,08,47,8.40
2014,02,20,08,48,9.20
2014,02,20,08,49,8.00
2014,02,20,08,50,7.20
2014,02,20,08,51,8.90
2014,02,20,08,52,8.50
2014,02,20,08,53,8.90
2014,02,20,08,54,8.90
2014,02,20,08,55,6.20
2014,02,20,08,56,5.90
2014,02,20,08,57,12.90
2014,02,20,08,58,8.10
2014,02,20,08,59,13.00
2014,02,20,09,00,8.60
2014,02,20,09,01,8.70
2014,02,20,09,02,6.40
2014,02,20,09,03,7.30
2014,02,20,09,04,5.90
2014,02,20,09,05,11.90
2014,02,20,09,06,12.50
2014,02,20,09,07,12.60
2014,02,20,09,08,13.90
2014,02,20,09,09,10.10
2014,02,20,09,10,9.20
2014,02,20,09,11,10.10
2014,02,20,09,12,16.10
2014,02,20,09,13,12.60
2014,02,20,09,14,16.40
2014,02,20,09,15,4.80
2014,02,20,09,16,9.20
2014,02,20,09,17,8.60
2014,02,20,09,18,5.80
2014,02,20,09,19,9.30
2014,02,20,09,20,10.30
2014,02,20,09,21,6.10
2014,02,20,09,22,8.10
2014,02,20,09,23,9.00
2014,02,20,09,24,12.30
2014,02,20,09,25,13.50
2014,02,20,09,26,14.60
2014,02,20,09,27,6.70
2014,02,20,09,28,8.80
2014,02,20,09,29,2.60
2014,02,20,09,30,4.10
2014,02,20,09,31,6.40
2014,02,20,09,32,8.20
2014,02,20,09,33,12.10
2014,02,20,09,34,7.00
2014,02,20,09,35,18.20
2014,02,20,09,36,18.50
2014,02,20,09,37,16.30
2014,02,20,09,38,15.10
2014,02,20,09,39,9.10
2014,02,20,09,40,12.30
2014,02,20,09,41,16.30
2014,02,20,09,42,13.40
2014,02,20,09,43,14.20
2014,02,20,09,44,7.20
2014,02,20,09,45,6.40
2014,02,20,09,46,9.40
2014,02,20,09,47,12.50
2014,02,20,09,48,17.30
2014,02,20,09,49,13.40
2014,02,20,09,50,10.60
2014,02,20,09,51,8.00
2014,02,20,09,52,5.60
2014,02,20,09,53,6.40
2014,02,20,09,54,7.40
2014,02,20,09,55,15.30
2014,02,20,09,56,9.20
2014,02,20,09,57,13.50
2014,02,20,09,58,12.00
2014,02,20,09,59,7.80
2014,02,20,10,00,3.10
2014,02,20,10,01,7.00
2014,02,20,10,02,5.80
2014,02,20,10,03,5.50
2014,02,20,10,04,9.50
2014,02,20,10,05,10.30
2014,02,20,10,06,6.60
2014,02,20,10,07,7.60
2014,02,20,10,08,4.40
2014,02,20,10,09,7.60
2014,02,20,10,10,3.10
2014,02,20,10,11,7.30
2014,02,20,10,12,7.60
2014,02,20,10,13,8.20
2014,02,20,10,14,3.50
2014,02,20,10,15,1.40
2014,02,20,10,16,6.30
2014,02,20,10,17,16.70
2014,02,20,10,18,18.20
2014,02,20,10,19,17.80
2014,02,20,10,20,17.70
2014,02,20,10,21,25.20
2014,02,20,10,22,15.40
2014,02,20,10,23,6.90
2014,02,20,10,24,11.00
2014,02,20,10,25,12.20
2014,02,20,10,26,13.40
2014,02,20,10,27,13.80
2014,02,20,10,28,11.30
2014,02,20,10,29,9.90
2014,02,20,10,30,13.60
2014,02,20,10,31,11.70
2014,02,20,10,32,7.60
2014,02,20,10,33,14.00
2014,02,20,10,34,15.80
2014,02,20,10,35,10.90
2014,02,20,10,36,7.50
2014,02,20,10,37,12.20
2014,02,20,10,38,9.10
2014,02,20,10,39,7.00
2014,02,20,10,40,6.00
2014,02,20,10,41,4.10
2014,02,20,10,42,9.40
2014,02,20,10,43,10.90
2014,02,20,10,44,18.80
2014,02,20,10,45,10.90
2014,02,20,10,46,8.60
2014,02,20,10,47,11.70
2014,02,20,10,48,9.90
2014,02,20,10,49,8.30
2014,02,20,10,50,10.50
2014,02,20,10,51,11.80
2014,02,20,10,52,12.80
2014,02,20,10,53,7.90
2014,02,20,10,54,5.80
2014,02,20,10,55,12.00
2014,02,20,10,56,7.50
2014,02,20,10,57,9.10
2014,02,20,10,58,3.80
2014,02,20,10,59,9.20
2014,02,20,11,00,8.10
2014,02,20,11,01,5.30
2014,02,20,11,02,2.50
2014,02,20,11,03,2.30
2014,02,20,11,04,0.00
2014,02,20,11,05,1.90
2014,02,20,11,06,2.10
2014,02,20,11,07,5.20
2014,02,20,11,08,4.40
2014,02,20,11,09,0.00
2014,02,20,11,10,6.90
2014,02,20,11,11,17.70
2014,02,20,11,12,9.90
2014,02,20,11,13,19.00
2014,02,20,11,14,11.90
2014,02,20,11,15,8.50
2014,02,20,11,16,5.70
2014,02,20,11,17,8.00
2014,02,20,11,18,16.90
2014,02,20,11,19,13.60
2014,02,20,11,20,14.90
2014,02,20,11,21,10.70
2014,02,20,11,22,10.90
2014,02,20,11,23,12.00
2014,02,20,11,24,10.20
2014,02,20,11,25,7.60
2014,02,20,11,26,10.40
2014,02,20,11,27,12.20
2014,02,20,11,28,14.00
2014,02,20,11,29,14.40
2014,02,20,11,30,13.50
2014,02,20,11,31,7.20
2014,02,20,11,32,14.40
2014,02,20,11,33,10.50
2014,02,20,11,34,13.20
2014,02,20,11,35,10.10
2014,02,20,11,36,8.30
2014,02,20,11,37,9.30
2014,02,20,11,38,8.90
2014,02,20,11,39,9.30
2014,02,20,11,40,4.80
2014,02,20,11,41,2.40
2014,02,20,11,42,4.30
2014,02,20,11,43,11.70
2014,02,20,11,44,6.20
2014,02,20,11,45,13.30
2014,02,20,11,46,10.90
2014,02,20,11,47,18.10
2014,02,20,11,48,11.70
2014,02,20,11,49,6.50
2014,02,20,11,50,14.10
2014,02,20,11,51,18.90
2014,02,20,11,52,15.30
2014,02,20,11,53,7.70
2014,02,20,11,54,10.90
2014,02,20,11,55,7.70
2014,02,20,11,56,5.30
2014,02,20,11,57,10.20
2014,02,20,11,58,12.20
2014,02,20,11,59,6.00
2014,02,20,12,00,12.60
2014,02,20,12,01,15.30
2014,02,20,12,02,11.30
2014,02,20,12,03,10.90
2014,02,20,12,04,7.90
2014,02,20,12,05,9.20
2014,02,20,12,06,5.50
2014,02,20,12,07,4.00
2014,02,20,12,08,3.90
2014,02,20,12,09,4.30
2014,02,20,12,10,6.40
2014,02,20,12,11,13.40
2014,02,20,12,12,11.70
2014,02,20,12,13,11.70
2014,02,20,12,14,4.30
2014,02,20,12,15,10.10
2014,02,20,12,16,13.80
2014,02,20,12,17,7.80
2014,02,20,12,18,8.90
2014,02,20,12,19,5.50
2014,02,20,12,20,5.90
2014,02,20,12,21,10.50
2014,02,20,12,22,10.10
2014,02,20,12,23,7.70
2014,02,20,12,24,9.40
2014,02,20,12,25,8.40
2014,02,20,12,26,7.20
2014,02,20,12,27,11.00
2014,02,20,12,28,13.80
2014,02,20,12,29,7.50
2014,02,20,12,30,10.00
2014,02,20,12,31,11.20
2014,02,20,12,32,5.60
2014,02,20,12,33,8.50
2014,02,20,12,34,6.40
2014,02,20,12,35,4.10
2014,02,20,12,36,10.90
2014,02,20,12,37,6.30
2014,02,20,12,38,9.70
2014,02,20,12,39,9.40
2014,02,20,12,40,8.30
2014,02,20,12,41,12.40
2014,02,20,12,42,13.40
2014,02,20,12,43,8.60
2014,02,20,12,44,9.40
2014,02,20,12,45,8.40
2014,02,20,12,46,8.90
2014,02,20,12,47,17.50
2014,02,20,12,48,10.90
2014,02,20,12,49,7.70
2014,02,20,12,50,15.80
2014,02,20,12,51,12.90
2014,02,20,12,52,16.30
2014,02,20,12,53,12.90
2014,02,20,12,54,13.80
2014,02,20,12,55,13.80
2014,02,20,12,56,22.20
2014,02,20,12,57,20.40
2014,02,20,12,58,14.60
2014,02,20,12,59,11.90
2014,02,20,13,00,5.60
2014,02,20,13,01,12.80
2014,02,20,13,02,18.30
2014,02,20,13,03,12.40
2014,02,20,13,04,20.90
2014,02,20,13,05,10.90
2014,02,20,13,06,11.90
2014,02,20,13,07,10.90
2014,02,20,13,08,19.00
2014,02,20,13,09,16.80
2014,02,20,13,10,25.70
2014,02,20,13,11,21.20
2014,02,20,13,12,17.20
2014,02,20,13,13,13.00
2014,02,20,13,14,19.50
2014,02,20,13,15,20.80
2014,02,20,13,16,19.50
2014,02,20,13,17,10.20
2014,02,20,13,18,22.80
2014,02,20,13,19,20.40
2014,02,20,13,20,10.10
2014,02,20,13,21,17.10
2014,02,20,13,22,14.40
2014,02,20,13,23,13.00
2014,02,20,13,24,18.00
2014,02,20,13,25,18.30
2014,02,20,13,26,12.70
2014,02,20,13,27,16.50
2014,02,20,13,28,13.60
2014,02,20,13,29,13.90
2014,02,20,13,30,14.70
2014,02,20,13,31,9.10
2014,02,20,13,32,12.70
2014,02,20,13,33,7.30
2014,02,20,13,34,11.20
2014,02,20,13,35,18.70
2014,02,20,13,36,11.70
2014,02,20,13,37,14.60
2014,02,20,13,38,8.60
2014,02,20,13,39,10.50
2014,02,20,13,40,9.70
2014,02,20,13,41,14.10
2014,02,20,13,42,12.40
2014,02,20,13,43,17.30
2014,02,20,13,44,17.50
2014,02,20,13,45,15.70
2014,02,20,13,46,15.10
2014,02,20,13,47,6.50
2014,02,20,13,48,7.00
2014,02,20,13,49,5.30
2014,02,20,13,50,11.30
2014,02,20,13,51,23.70
2014,02,20,13,52,13.00
2014,02,20,13,53,7.10
2014,02,20,13,54,13.70
2014,02,20,13,55,15.70
2014,02,20,13,56,13.40
2014,02,20,13,57,8.10
2014,02,20,13,58,17.00
2014,02,20,13,59,16.70
2014,02,20,14,00,17.50
2014,02,20,14,01,11.30
2014,02,20,14,02,13.90
2014,02,20,14,03,13.60
2014,02,20,14,04,11.70
2014,02,20,14,05,8.00
2014,02,20,14,06,8.60
2014,02,20,14,07,6.90
2014,02,20,14,08,9.50
2014,02,20,14,09,17.50
2014,02,20,14,10,20.40
2014,02,20,14,11,15.60
2014,02,20,14,12,15.30
2014,02,20,14,13,15.20
2014,02,20,14,14,16.50
2014,02,20,14,15,9.20
2014,02,20,14,16,11.60
2014,02,20,14,17,8.40
2014,02,20,14,18,9.90
2014,02,20,14,19,11.00
2014,02,20,14,20,11.70
2014,02,20,14,21,11.60
2014,02,20,14,22,10.90
2014,02,20,14,23,7.40
2014,02,20,14,24,17.50
2014,02,20,14,25,14.20
2014,02,20,14,26,7.20
2014,02,20,14,27,16.10
2014,02,20,14,28,18.50
2014,02,20,14,29,26.60
2014,02,20,14,30,16.10
2014,02,20,14,31,12.40
2014,02,20,14,32,9.80
2014,02,20,14,33,3.30
2014,02,20,14,34,4.50
2014,02,20,14,35,13.80
2014,02,20,14,36,10.40
2014,02,20,14,37,3.30
2014,02,20,14,38,3.80
2014,02,20,14,39,7.30
2014,02,20,14,40,10.10
2014,02,20,14,41,6.30
2014,02,20,14,42,11.40
2014,02,20,14,43,10.50
2014,02,20,14,44,15.00
2014,02,20,14,45,12.60
2014,02,20,14,46,15.80
2014,02,20,14,47,17.10
2014,02,20,14,48,10.30
2014,02,20,14,49,6.00
2014,02,20,14,50,9.30
2014,02,20,14,51,5.50
2014,02,20,14,52,12.40
2014,02,20,14,53,6.00
2014,02,20,14,54,7.00
2014,02,20,14,55,7.10
2014,02,20,14,56,19.40
2014,02,20,14,57,15.50
2014,02,20,14,58,6.50
2014,02,20,14,59,9.10
2014,02,20,15,00,14.20
2014,02,20,15,01,13.50
2014,02,20,15,02,10.90
2014,02,20,15,03,12.30
2014,02,20,15,04,10.50
2014,02,20,15,05,11.20
2014,02,20,15,06,8.20
2014,02,20,15,07,14.20
2014,02,20,15,08,7.20
2014,02,20,15,09,16.50
2014,02,20,15,10,24.30
2014,02,20,15,11,10.00
2014,02,20,15,12,7.60
2014,02,20,15,13,6.00
2014,02,20,15,14,11.30
2014,02,20,15,15,20.10
2014,02,20,15,16,17.50
2014,02,20,15,17,11.80
2014,02,20,15,18,7.00
2014,02,20,15,19,8.10
2014,02,20,15,20,16.00
2014,02,20,15,21,18.40
2014,02,20,15,22,17.80
2014,02,20,15,23,15.70
2014,02,20,15,24,12.60
2014,02,20,15,25,9.00
2014,02,20,15,26,7.60
2014,02,20,15,27,12.20
2014,02,20,15,28,14.90
2014,02,20,15,29,8.90
2014,02,20,15,30,4.80
2014,02,20,15,31,9.10
2014,02,20,15,32,8.00
2014,02,20,15,33,8.90
2014,02,20,15,34,10.90
2014,02,20,15,35,12.30
2014,02,20,15,36,10.10
2014,02,20,15,37,13.00
2014,02,20,15,38,6.60
2014,02,20,15,39,6.80
2014,02,20,15,40,7.60
2014,02,20,15,41,9.00
2014,02,20,15,42,9.50
2014,02,20,15,43,7.50
2014,02,20,15,44,13.90
2014,02,20,15,45,10.10
2014,02,20,15,46,6.90
2014,02,20,15,47,13.00
2014,02,20,15,48,11.70
2014,02,20,15,49,9.30
2014,02,20,15,50,17.10
2014,02,20,15,51,12.20
2014,02,20,15,52,12.50
2014,02,20,15,53,10.90
2014,02,20,15,54,14.90
2014,02,20,15,55,8.50
2014,02,20,15,56,5.50
2014,02,20,15,57,6.50
2014,02,20,15,58,9.50
2014,02,20,15,59,7.20
2014,02,20,16,00,12.80
2014,02,20,16,01,9.70
2014,02,20,16,02,7.30
2014,02,20,16,03,0.00
2014,02,20,16,04,3.10
2014,02,20,16,05,4.80
2014,02,20,16,06,0.60
2014,02,20,16,07,0.00
2014,02,20,16,08,1.60
2014,02,20,16,09,0.10
2014,02,20,16,10,0.20
2014,02,20,16,11,4.20
2014,02,20,16,12,4.40
2014,02,20,16,13,1.50
2014,02,20,16,14,3.90
2014,02,20,16,15,0.40
2014,02,20,16,16,0.00
2014,02,20,16,17,0.40
2014,02,20,16,18,0.00
2014,02,20,16,19,9.30
2014,02,20,16,20,0.60
2014,02,20,16,21,0.20
2014,02,20,16,22,11.90
2014,02,20,16,23,5.50
2014,02,20,16,24,16.50
2014,02,20,16,25,7.60
2014,02,20,16,26,4.70
2014,02,20,16,27,4.60
2014,02,20,16,28,4.90
2014,02,20,16,29,10.10
2014,02,20,16,30,5.10
2014,02,20,16,31,8.30
2014,02,20,16,32,12.80
2014,02,20,16,33,12.00
2014,02,20,16,34,10.50
2014,02,20,16,35,10.50
2014,02,20,16,36,4.30
2014,02,20,16,37,5.00
2014,02,20,16,38,13.20
2014,02,20,16,39,10.20
2014,02,20,16,40,14.10
2014,02,20,16,41,9.50
2014,02,20,16,42,11.00
2014,02,20,16,43,6.00
2014,02,20,16,44,7.20
2014,02,20,16,45,8.90
2014,02,20,16,46,7.70
2014,02,20,16,47,7.00
2014,02,20,16,48,9.50
2014,02,20,16,49,7.50
2014,02,20,16,50,4.80
2014,02,20,16,51,1.00
2014,02,20,16,52,4.90
2014,02,20,16,53,4.30
2014,02,20,16,54,2.10
2014,02,20,16,55,3.10
2014,02,20,16,56,0.60
2014,02,20,16,57,1.80
2014,02,20,16,58,0.90
2014,02,20,16,59,4.20
2014,02,20,17,00,2.60
2014,02,20,17,01,4.50
2014,02,20,17,02,2.70
2014,02,20,17,03,0.10
2014,02,20,17,04,2.70
2014,02,20,17,05,2.20
2014,02,20,17,06,0.00
2014,02,20,17,07,3.40
2014,02,20,17,08,4.30
2014,02,20,17,09,2.00
2014,02,20,17,10,0.00
2014,02,20,17,11,2.10
2014,02,20,17,12,0.00
2014,02,20,17,13,0.00
2014,02,20,17,14,0.00
2014,02,20,17,15,0.00
2014,02,20,17,16,1.20
2014,02,20,17,17,0.00
2014,02,20,17,18,0.00
2014,02,20,17,19,0.10
2014,02,20,17,20,0.40
2014,02,20,17,21,1.50
2014,02,20,17,22,12.20
2014,02,20,17,23,10.20
2014,02,20,17,24,7.80
2014,02,20,17,25,2.40
2014,02,20,17,26,0.00
2014,02,20,17,27,2.90
2014,02,20,17,28,0.10
2014,02,20,17,29,0.00
2014,02,20,17,30,0.00
2014,02,20,17,31,0.00
2014,02,20,17,32,0.30
2014,02,20,17,33,9.70
2014,02,20,17,34,7.60
2014,02,20,17,35,2.30
2014,02,20,17,36,6.00
2014,02,20,17,37,3.70
2014,02,20,17,38,4.70
2014,02,20,17,39,5.10
2014,02,20,17,40,6.40
2014,02,20,17,41,3.50
2014,02,20,17,42,3.90
2014,02,20,17,43,4.30
2014,02,20,17,44,5.80
2014,02,20,17,45,7.70
2014,02,20,17,46,6.00
2014,02,20,17,47,1.70
2014,02,20,17,48,3.00
2014,02,20,17,49,14.40
2014,02,20,17,50,9.00
2014,02,20,17,51,5.80
2014,02,20,17,52,8.80